World > North America > United States > Ohio > Blue Ash

Hourly Blue Ash, OH Regional Weather

Feedback E-mail the Weather

Quick WX

Blue Ash, OH Weather Maps

°F °C°F °C
Blue Ash Weather Map
UTC Time: 8/18/2022, 05:38
Your Time:

Blue Ash, OH Regional Weather

Expires:202208180600;;235186
ASUS41 KCLE 180510
RWRCLE
OHIO REGIONAL WEATHER ROUNDUP
NATIONAL WEATHER SERVICE CLEVELAND, OH
100 AM EDT THU AUG 18 2022

NOTE: "FAIR" INDICATES FEW OR NO CLOUDS BELOW 12,000 FEET WITH NO
SIGNIFICANT WEATHER AND/OR OBSTRUCTIONS TO VISIBILITY.


OHZ042-051>053-060>062-070>072-077>081-180600-
  SOUTHWEST OHIO
  
CITY           SKY/WX    TMP DP  RH WIND       PRES   REMARKS
CINC-COVINGTON CLEAR     71  61  70 N6        30.03F                  
CINC-LUNKEN    CLEAR     64  62  93 CALM      30.03S                  
HAMILTON       CLEAR     63  60  90 CALM      30.05S                  
DAYTON         CLEAR     64  58  80 N3        30.06S                  
WRIGHT-PAT AFB CLEAR     63  60  90 CALM      30.01S                  
DAYTON GENERAL CLEAR     64  60  87 NE3       30.04S                  
WILMINGTON     CLEAR     63  59  87 N3        30.04S                  
$$


SKY/WX - Weather  TMP - Temperature  DP - Dew Point  RH - Humidity
WIND - Wind Direction/Speed PRES - Barometric Pressure VSB - Visibility
WCI - Wind Chill Index E13G22 Wind - East Wind 13 mph/Gusts of 22 mph

Trending Headlines

Blue Ash Radar Loop



Blue Ash Quick Facts


National Two Day Weather Forecast


E-mail the Blue Ash Weather Forecast

Voice your opinion or tell us about page issues...